Weather History for Bismarck, ND

Change the Weather History Date:

Wednesday, January 4, 2012

  Actual Average Record
Temperature  
Mean Temperature 39 °F 13 °F  
Max Temperature 55 °F 23 °F 55 °F (2012)
Min Temperature 22 °F 2 °F -41 °F (1968)
Degree Days  
Heating Degree Days 26 52  
Month to date heating degree days 146 208  
Since 1 July heating degree days 3108 3708  
Cooling Degree Days 0 0  
Month to date cooling degree days 0 0  
Year to date cooling degree days 0 0  
Moisture  
Dew Point 25 °F    
Average Humidity 62    
Maximum Humidity 92    
Minimum Humidity 32    
Precipitation  
Precipitation 0.00 in 0.01 in 0.51 in (1997)
Month to date precipitation 0.00 0.06  
Year to date precipitation 0.00 0.06  
Snow  
Snow 0.00 in 0.30 in 7.50 in (1997)
Month to date snowfall 0.0 1.3  
Since 1 July snowfall 3.9 21.8  
Snow Depth 0.00 in    
Sea Level Pressure  
Sea Level Pressure 30.06 in    
Wind  
Wind Speed 6 mph (West)    
Max Wind Speed 20 mph    
Max Gust Speed 25 mph    
Visibility 10 miles    
Events      
T = Trace of Precipitation, MM = Missing Value Source: NWS Daily Summary

Daily Weather History Graph

Daily Weather History Graph

Search for Another Location

Airport:

Trip Planner

Search our weather history database for the weather conditions in past years. The results will help you decide how hot, cold, wet, or windy it might be!

Date:

Astronomy

Jan. 04, 2012 Rise Set
Actual Time 8:27 AM CST 5:08 PM CST
Civil Twilight 7:52 AM CST 5:42 PM CST
Nautical Twilight 7:14 AM CST 6:21 PM CST
Astronomical Twilight 6:37 AM CST 6:58 PM CST
Moon 1:34 PM CST (1/4) 4:15 AM CST (1/4)
Length of Visible Light 9h 50m
Length of Day
8h 40m
Waxing Gibbous, 81% of the Moon is Illuminated
Jan 4
Waxing Gibbous
Jan 9
Full
Jan 16
Last Quarter
Jan 23
New
Jan 30
First Quarter

Hourly Weather History & Observations

Time (CST) Temp. Windchill Dew Point Humidity Pressure Visibility Wind Dir Wind Speed Gust Speed Precip Events Conditions
12:52 AM 27.0 °F 23.0 °F 21.9 °F 81% 30.17 in 10.0 mi West 3.5 mph - N/A   Clear
1:52 AM 26.6 °F 22.6 °F 21.2 °F 80% 30.11 in 10.0 mi WSW 3.5 mph - N/A   Clear
2:52 AM 21.9 °F 17.2 °F 19.0 °F 89% 30.16 in 10.0 mi SW 3.5 mph - N/A   Clear
3:52 AM 28.0 °F 20.8 °F 24.1 °F 85% 30.14 in 10.0 mi WSW 6.9 mph - N/A   Clear
4:52 AM 28.4 °F 23.3 °F 24.8 °F 86% 30.08 in 10.0 mi SW 4.6 mph - N/A   Clear
5:52 AM 24.1 °F - 21.9 °F 91% 30.11 in 10.0 mi Calm Calm - N/A   Clear
6:52 AM 27.0 °F - 23.0 °F 85% 30.09 in 10.0 mi Calm Calm - N/A   Clear
7:52 AM 30.0 °F 26.5 °F 23.0 °F 75% 30.08 in 10.0 mi West 3.5 mph - N/A   Clear
8:52 AM 30.0 °F - 23.0 °F 75% 30.09 in 10.0 mi Calm Calm - N/A   Clear
9:52 AM 36.0 °F 30.3 °F 28.0 °F 73% 30.08 in 10.0 mi WNW 6.9 mph - N/A   Clear
10:52 AM 41.0 °F 35.8 °F 27.0 °F 57% 30.08 in 10.0 mi WNW 8.1 mph - N/A   Clear
11:52 AM 46.0 °F 39.0 °F 26.1 °F 46% 30.04 in 10.0 mi West 17.3 mph - N/A   Clear
12:52 PM 48.9 °F - 27.0 °F 43% 30.04 in 10.0 mi West 11.5 mph - N/A   Clear
1:52 PM 53.1 °F - 27.0 °F 37% 30.01 in 10.0 mi WNW 11.5 mph - N/A   Clear
2:52 PM 55.0 °F - 27.0 °F 34% 30.00 in 10.0 mi WNW 10.4 mph 23.0 mph N/A   Clear
3:52 PM 53.1 °F - 28.0 °F 38% 30.02 in 10.0 mi WNW 9.2 mph - N/A   Clear
4:52 PM 48.9 °F - 28.0 °F 44% 30.05 in 10.0 mi WNW 8.1 mph - N/A   Clear
5:52 PM 39.0 °F 36.8 °F 26.1 °F 60% 30.05 in 10.0 mi SW 3.5 mph - N/A   Clear
6:52 PM 37.9 °F 34.4 °F 26.1 °F 62% 30.04 in 10.0 mi West 4.6 mph - N/A   Clear
7:52 PM 37.0 °F 32.4 °F 26.1 °F 65% 30.02 in 10.0 mi WSW 5.8 mph - N/A   Clear
8:52 PM 34.0 °F 28.8 °F 25.0 °F 70% 30.02 in 10.0 mi West 5.8 mph - N/A   Clear
9:52 PM 37.0 °F 32.4 °F 25.0 °F 62% 30.00 in 10.0 mi SW 5.8 mph - N/A   Clear
10:52 PM 33.1 °F 28.7 °F 24.1 °F 70% 29.99 in 10.0 mi WSW 4.6 mph - N/A   Clear
11:52 PM 35.1 °F - 25.0 °F 67% 29.95 in 10.0 mi Calm Calm - N/A   Clear